RH
2 2 2 2 3 3 3 3 6 8 10 14 20 15 20 20 22 19 21 22 29 31 39 43 46 41 36 36 40 45 48 35 38 33 32 28 37 51 56 43 46 54 78
2 2 2 2 2 2 2 2 3 4 6 11 13 16 15 14 20 22 20 23 31 30 33 51 52 32 31 36 41 48 53 42 45 32 30 35 37 49 65 52 40 50 52
2 2 2 2 2 2 2 2 2 3 4 7 10 12 14 15 14 16 18 22 26 34 32 45 48 42 42 51 51 52 65 75 53 40 42 36 36 33 41 60 100 95 100
2 2 2 2 2 2 2 2 2 3 3 4 5 9 10 12 13 15 17 20 23 28 31 33 40 49 50 51 50 56 65 72 82 56 51 44 47 26 41 88 100 100 86
2 1 2 1 1 1 1 2 2 3 3 3 3 4 6 12 13 16 19 18 18 27 31 34 40 44 53 50 52 55 59 69 78 59 54 50 56 49 74 100 100 100 100
2 2 2 1 1 2 2 2 2 2 2 3 3 3 4 6 11 15 22 19 18 22 30 33 34 39 46 48 48 55 67 65 54 56 56 65 70 72 58 93 93 100 100
2 2 2 2 2 2 2 2 2 2 2 2 3 3 3 4 6 10 18 25 22 22 28 33 34 36 40 54 54 61 67 70 42 50 45 92 72 72 66 72 90 98 100
2 2 2 2 2 2 2 2 2 2 2 3 4 4 4 5 6 6 12 23 26 26 28 33 33 32 48 64 57 60 66 52 38 29 68 77 80 71 52 52 81 96 93
2 2 3 3 3 3 3 3 3 3 3 3 4 5 6 6 7 8 8 12 22 26 26 30 35 38 48 55 49 54 46 24 19 58 90 64 74 65 61 75 100 100 100
2 2 3 6 4 4 4 4 4 4 4 4 5 6 6 8 9 10 10 10 11 13 18 25 32 34 36 39 37 19 14 24 77 92 70 71 62 52 72 77 100 100 100
2 2 3 5 8 7 5 5 5 5 5 5 5 5 6 7 8 9 10 13 17 21 22 22 25 25 19 13 15 28 60 92 95 83 59 55 68 82 88 100 100 100 100
3 3 3 4 5 10 11 8 6 6 6 6 7 7 7 7 8 9 9 10 10 10 11 12 12 13 18 36 50 64 62 61 55 44 38 71 100 100 100 100 100 100 100
10 6 4 5 6 9 18 20 19 19 14 10 9 9 9 9 10 11 12 13 14 17 19 22 25 27 31 34 37 41 36 35 52 72 77 100 100 100 100 100 100 100 100
23 20 13 12 10 10 11 18 30 40 42 35 25 18 17 15 14 14 14 14 15 16 15 16 20 22 22 30 42 49 86 71 81 100 100 100 100 100 100 100 100 100 100
36 33 33 33 34 28 23 23 24 26 32 50 66 78 75 77 70 60 59 51 43 40 44 48 63 59 55 62 100 91 97 95 99 100 100 100 100 100 100 100 100 100 100
36 36 34 38 40 35 32 35 25 18 15 19 23 28 29 31 56 74 80 100 74 71 72 85 70 72 87 83 84 100 100 100 100 100 100 100 96 100 100 100 100 100 100
42 44 46 48 48 49 49 52 50 47 47 46 49 50 49 52 66 68 68 70 74 81 80 86 89 77 66 81 91 91 97 99 98 97 100 100 100 100 100 100 100 100 100
54 57 59 58 59 60 59 56 54 55 56 58 58 58 60 61 62 63 66 73 76 72 71 72 75 86 74 75 76 77 84 100 95 87 100 100 100 100 98 100 100 100 100
55 55 57 56 59 63 66 66 64 64 65 64 64 66 65 66 69 68 68 68 68 67 67 68 67 67 69 71 73 72 73 63 68 80 100 100 94 100 100 100 100 100 100
61 59 56 58 58 60 61 61 62 64 66 66 67 68 71 74 76 78 82 81 80 82 86 83 85 87 87 84 86 86 86 84 80 87 81 72 70 76 98 92 93 100 100
58 60 62 64 67 67 66 69 70 70 68 68 68 68 68 69 69 70 70 72 66 66 67 66 66 69 67 69 68 65 69 64 68 66 66 66 66 58 62 60 58 67 73
64 62 61 62 63 65 68 66 65 63 62 60 57 56 55 53 53 53 53 53 52 51 48 45 44 43 42 38 38 41 41 42 39 46 56 53 49 44 46 43 42 38 39
66 65 65 65 65 64 63 62 63 63 59 62 66 66 66 66 67 63 56 50 48 50 47 44 39 32 28 23 25 26 26 26 27 26 24 26 32 37 38 32 32 33 34
79 79 78 79 82 81 80 81 79 76 75 66 64 69 73 68 63 58 56 54 47 46 39 32 31 29 27 27 24 19 15 11 10 12 12 9 7 5 4 4 5 6 10
94 93 93 92 94 92 90 88 82 82 79 81 76 70 70 68 71 62 58 59 55 48 44 43 39 28 24 21 20 16 14 14 10 4 3 3 3 3 3 3 3 3 3
79 90 94 99 100 99 91 84 86 82 80 78 77 76 66 70 75 74 70 67 69 46 32 28 27 24 18 15 14 14 8 4 3 3 3 4 4 3 3 3 3 3 3
Wind_Speed
99 91 85 90 93 95 91 89 93 93 95 93 93 91 91 89 87 85 86 84 80 77 75 70 69 71 67 65 63 61 60 60 66 65 67 66 66 65 65 66 73 77 79
84 83 82 86 80 83 85 76 81 86 92 97 98 98 97 91 89 89 89 90 90 83 79 78 75 72 69 68 65 66 65 64 64 66 63 61 63 61 64 67 68 70 72
72 74 71 70 69 75 82 74 76 83 88 93 99 99 100 97 93 93 91 90 91 91 87 85 81 79 76 76 72 71 70 71 69 67 67 62 62 65 67 65 65 69 68
62 61 61 62 63 68 74 64 68 78 81 86 94 103 107 101 96 95 92 93 93 95 94 91 85 82 81 82 77 77 77 78 77 73 71 68 64 70 64 65 74 79 75
47 46 51 57 60 61 64 63 70 75 81 86 89 95 102 104 101 95 95 95 93 92 92 94 90 88 86 83 84 83 83 82 80 78 74 70 66 66 60 65 67 72 71
37 39 43 46 49 53 58 62 68 76 80 82 86 89 91 97 101 98 96 96 99 97 94 94 93 93 91 91 90 89 85 85 85 81 79 72 69 66 66 69 70 62 63
32 34 37 41 44 46 49 54 59 64 70 72 76 76 79 85 91 97 101 100 102 101 99 97 98 99 97 97 94 90 91 90 87 84 77 76 73 69 74 72 73 70 62
29 31 31 35 40 44 48 50 52 56 60 63 67 72 76 80 83 86 95 101 103 104 103 102 102 102 99 97 95 95 92 92 85 81 75 74 76 73 73 71 75 70 64
23 27 29 30 33 36 40 45 46 48 49 55 61 66 72 77 82 85 88 95 102 107 107 106 104 105 103 99 101 99 94 88 82 78 74 75 74 74 73 66 68 64 68
16 21 26 26 27 30 33 34 38 41 45 48 53 57 62 67 72 77 81 85 90 95 100 106 107 106 105 101 97 90 84 80 74 74 75 75 73 74 73 71 71 71 74
8 11 17 23 24 26 28 31 32 34 36 40 45 50 53 56 60 63 67 70 72 76 82 86 89 90 89 86 80 79 75 75 75 76 77 76 75 73 72 72 76 78 81
1 5 9 12 18 21 23 25 27 29 31 33 36 40 45 49 53 56 60 62 65 68 69 72 74 74 72 71 72 73 75 75 77 78 76 75 76 75 79 77 80 85 89
13 5 3 7 10 14 17 20 20 21 25 30 33 37 40 43 47 50 53 56 58 60 62 64 64 64 66 67 68 70 72 71 69 70 66 74 77 77 82 83 85 86 88
16 13 7 3 4 8 11 13 18 19 21 22 25 29 33 37 41 44 48 50 53 55 57 57 57 58 58 57 57 60 59 64 64 63 69 72 75 78 81 90 88 89 84
9 10 10 9 5 2 3 8 13 15 23 25 24 26 29 28 31 33 37 41 43 47 48 48 49 51 53 54 59 61 63 65 66 67 70 75 77 83 88 87 87 84 79
18 19 17 14 11 8 6 2 4 8 13 17 22 25 26 29 36 34 31 34 41 43 48 47 48 47 52 57 57 60 62 70 73 73 73 76 80 81 83 85 89 91 92
12 11 10 10 8 7 8 7 6 4 3 2 4 7 12 18 21 25 29 31 35 41 42 46 53 55 55 59 64 68 72 74 78 80 83 86 83 83 86 86 89 90 91
12 12 13 12 11 10 10 10 10 11 11 12 14 16 17 20 22 24 29 33 38 40 44 47 49 55 59 61 65 69 72 79 84 83 84 87 88 90 93 96 98 99 101
12 12 11 12 12 13 14 16 18 19 20 21 23 25 28 30 32 34 37 40 43 45 49 53 57 61 64 67 70 72 77 80 80 85 94 101 99 99 102 99 99 102 105
21 21 21 21 21 22 23 25 27 29 30 31 32 35 37 39 41 44 45 47 48 51 55 58 63 64 68 71 74 81 82 85 83 91 96 100 103 106 116 118 113 114 115
28 28 27 27 27 27 27 28 31 33 34 36 37 39 41 44 47 51 53 54 57 60 64 67 69 73 73 79 82 85 90 95 99 98 100 107 111 116 119 123 124 127 128
35 34 33 34 34 35 36 38 38 39 41 44 46 48 51 51 55 56 59 63 66 70 75 79 82 84 86 90 96 97 100 103 106 111 118 120 123 123 127 130 131 131 132
42 43 43 43 44 44 45 47 49 49 49 51 53 55 57 59 62 65 68 72 74 77 80 83 85 88 91 94 97 98 103 112 119 122 121 119 125 131 134 133 133 135 134
52 52 53 54 54 55 55 57 59 61 63 65 65 66 69 70 72 74 77 80 82 84 87 88 91 92 94 100 102 103 106 107 106 105 104 106 108 110 113 115 116 120 125
61 62 64 65 65 66 67 68 70 72 74 75 77 78 78 79 82 84 84 87 90 91 94 93 94 95 98 101 102 104 104 106 105 101 97 96 95 94 96 97 98 97 98
67 70 72 73 74 75 76 77 79 81 83 85 85 87 87 87 88 91 93 96 97 98 96 96 96 97 96 97 98 101 101 98 94 88 87 86 85 83 83 83 83 83 82
Wind_Direction
260 260 262 259 254 254 252 251 248 249 248 247 248 250 249 247 248 249 249 250 249 249 251 254 255 255 258 260 261 263 268 269 270 273 274 271 274 270 265 264 259 258 259
266 263 259 256 253 252 252 245 249 247 246 246 246 247 249 248 246 247 247 248 247 249 251 252 253 256 258 262 264 265 267 267 271 269 271 269 268 270 264 267 264 261 262
266 263 261 258 253 250 249 245 245 247 247 243 244 245 246 247 246 245 246 247 248 247 250 251 253 257 260 262 265 266 269 272 271 272 275 272 266 264 261 259 257 261 258
267 263 260 256 250 245 246 243 242 245 245 244 242 243 245 246 246 246 245 247 248 247 248 251 253 257 259 262 264 267 270 273 274 269 271 271 270 268 262 253 250 255 264
269 263 256 253 249 246 245 241 238 240 241 242 242 240 242 242 244 245 244 246 248 248 250 251 253 256 258 261 263 265 269 271 273 271 270 272 272 267 258 258 255 255 261
261 255 253 252 248 245 244 243 240 239 239 240 242 242 242 243 245 246 246 247 248 248 249 251 254 255 258 261 263 267 268 271 272 270 270 268 269 265 259 260 260 255 255
254 253 249 248 246 243 242 241 238 239 243 243 245 245 244 243 244 244 244 245 246 248 249 252 254 256 258 262 264 266 269 271 268 267 266 266 266 261 257 257 257 256 256
250 246 243 241 241 238 237 239 239 238 238 242 245 245 245 245 246 245 245 245 246 247 250 253 255 258 260 262 264 269 267 270 266 265 262 263 265 264 259 259 254 254 257
250 243 244 244 240 241 240 242 242 240 239 238 239 240 241 242 244 246 246 246 247 249 251 253 254 255 259 263 265 266 267 263 263 260 259 260 260 259 257 252 247 247 250
242 242 234 238 241 242 243 242 241 239 238 236 235 235 236 238 241 244 246 248 249 250 252 253 255 257 260 262 263 262 259 259 256 258 260 259 257 255 254 251 242 253 245
236 233 239 236 235 236 235 237 236 237 236 236 235 236 236 238 240 242 245 246 247 248 250 252 255 257 258 258 257 255 254 254 255 255 256 256 254 249 249 250 250 253 254
124 207 224 237 241 242 244 244 243 242 242 240 239 239 239 240 242 243 245 246 247 248 250 252 254 255 255 255 254 254 255 255 255 255 253 248 247 247 246 249 252 256 256
42 30 220 216 225 229 238 247 248 244 241 242 242 243 244 244 245 246 247 249 250 250 251 252 254 255 254 255 256 255 254 254 254 253 250 243 244 252 248 247 252 256 259
65 59 52 44 251 242 235 239 246 248 250 249 248 248 246 246 247 247 249 251 251 252 254 254 253 254 254 253 255 254 251 253 251 250 247 247 247 252 251 249 252 254 258
78 77 85 91 99 289 260 230 241 245 245 245 248 249 250 252 247 247 248 251 255 256 256 257 259 260 255 251 248 250 248 255 256 256 251 248 248 250 250 250 251 250 251
55 63 67 61 57 58 88 99 214 233 244 243 244 261 264 268 256 258 260 262 268 268 265 269 266 264 262 260 255 253 254 252 253 254 252 256 256 253 252 252 251 253 251
12 20 25 33 38 35 32 34 29 32 16 307 290 286 278 266 258 257 263 270 270 267 267 265 264 266 268 261 257 256 257 255 255 255 252 255 254 254 254 253 254 254 257
345 343 342 340 338 329 320 311 298 291 284 280 279 280 281 280 277 275 275 276 277 276 275 274 273 272 274 274 272 269 265 263 265 262 257 257 256 256 252 251 252 253 252
308 300 293 290 291 290 288 286 285 285 286 284 284 284 283 282 282 280 279 278 277 278 280 281 279 278 276 276 275 273 271 268 266 264 260 259 259 255 254 255 254 253 253
297 292 289 286 283 283 283 283 283 282 282 280 280 279 279 278 278 278 277 278 277 276 274 274 272 271 272 273 271 269 266 268 270 268 266 267 263 261 257 258 255 252 253
285 283 279 277 276 274 273 271 272 272 274 273 273 272 273 273 273 272 273 272 276 275 273 274 275 270 272 267 267 266 263 263 262 261 261 261 261 264 262 260 259 257 256
284 282 279 278 277 277 276 276 276 277 276 276 276 276 273 275 273 274 278 276 277 277 276 277 275 274 269 267 267 266 266 265 264 262 260 259 259 261 261 262 264 264 262
285 286 286 285 284 284 284 284 284 284 286 287 287 289 288 288 287 285 284 284 283 285 286 284 283 282 280 279 278 275 271 268 267 267 268 267 265 265 265 265 264 265 265
282 283 285 287 288 288 286 287 287 288 289 288 288 289 290 290 290 289 289 289 289 289 288 288 288 289 286 285 282 280 278 277 279 279 277 274 272 269 268 266 264 262 261
281 280 281 282 283 283 284 284 285 287 288 290 289 288 290 292 292 292 293 294 295 294 295 295 294 292 291 289 287 287 288 288 286 285 282 279 275 273 270 267 266 263 260
281 280 280 280 280 281 282 283 285 287 287 288 289 290 292 293 293 294 297 297 295 296 296 295 294 293 291 290 291 292 290 289 288 286 284 281 278 274 271 269 266 264 261